Tracking 17142 objects as of 28-May-2015
HD Live streaming from Space Station

TIANLIAN 1-02

Track TIANLIAN 1-02 now!
TIANLIAN 1-02 is classified as:


NORAD ID: 37737
Int'l Code: 2011-032A
Perigee: 35,679.5 km
Apogee: 35,908.3 km
Inclination: 1.1 °
Period: 1,436.1 minutes
Semi major axis: 42164 km
RCS: 12.5893 m2 (large)
Launch date: July 11, 2011
Source: People's Republic of China (PRC)

TIANLIAN 1-02 is the second Tianlian 1 data relay satellite, joining a similar craft launched in April 2008. The satellites are part of a network to increase the coverage of tracking stations for Chinese space missions across the globe.
Your satellite tracking list
Your tracking list is empty





NASA's NSSDC Master Catalog

Two Line Element Set (TLE):
1 37737U 11032A   15147.22557846 -.00000052  00000-0  10000-3 0  9993
2 37737 001.0653 080.8228 0027126 193.1843 218.6686 01.00271166 14229

Source of the keplerian elements: AFSPC

N2YO: 271